sat.trackr.live / text

‹ back to catalog

UNKNOWN

NORAD 81317

UNKNOWN UNKNOWN UNKNOWN

§ Identity

Operator
Country
Launch date
Launch site
Launch vehicle
Mass (kg)
RCS (m²)

External: N2YO · Heavens-Above

§ Orbital elements

Epoch: 2026-09-14T09:24:07.373664Z

Period
107.61 min
Inclination
67.1359°
Eccentricity
0.0216386
Mean motion
13.38126646 rev/d
Perigee alt
954.1 km
Apogee alt
1,278.4 km
Semi-major
7,494.4 km
B*
2.8408e-4
RAAN
289.5756°
Arg perigee
204.5125°
Mean anomaly
171.2709°
Rev number
62,551

§ Raw data

UNKNOWN1 81317U          26257.39175201  .00000107  00000+0  28408-3 0  99922 81317  67.1359 289.5756 0216386 204.5125 171.2709 13.38126646625516

JSON: /api/v1/satellites/81317 · /tle

For live sub-satellite position, see the globe view (requires WebGL).

§ Visibility from observer

Set your observer location to see the next 7 days of passes ≥ 10°. The values pass through the URL so the page stays shareable.

No JS? Fill the form by hand. The geolocation button needs JavaScript.